カタログに戻る

SL-12 DEB

LostHEO
NORAD 29416·DEBRIS·🇷🇺 Russia

打ち上げ May 31, 1989 から Baikonur Cosmodrome

Loading…

次のパス (今後24時間)

TLE

古いSource: Space-Track

元期: Mar 25, 2019, 10:17 UTC

1 29416U 89039BU  19084.42903175 -.00000079  00000-0 -58911-4 0  9990
2 29416  64.4970  30.2475 5081082 296.1625  20.8316  5.22044156215063

AllMySatでSL-12 DEBをリアルタイム追跡

Download on the App Store